Regional Weather Roundup
Issued by NWS

Home | Current Version | Previous Version | Text Only | Print | Product List | Glossary On
Versions: 1 2 3 4 5 6 7 8 9 10 11 12 13 14 15 16 17 18 19 20 21 22 23 24 25 26 27 28 29 30 31 32 33 34 35 36 37 38 39 40 41 42 43 44 45 46 47 48 49 50
000
ASUS43 KMPX 231310
RWRMN
WEATHER ROUNDUP FOR MINNESOTA
NATIONAL WEATHER SERVICE TWIN CITIES/CHANHASSEN MN
800 AM CDT SAT AUG 23 2014


NOTE: "FAIR" INDICATES FEW OR NO CLOUDS BELOW 12,000 FEET WITH NO
SIGNIFICANT WEATHER AND/OR OBSTRUCTIONS TO VISIBILITY. N/A MEANS
CURRENT SKY AND/OR WEATHER CONDITIONS ARE NOT AVAILABLE.

MNZ060>063-068>070-231400-
   Twin Cities Metro

CITY           SKY/WX    TMP DP  RH WIND       PRES   REMARKS
TWIN CITIES    CLOUDY    70  68  93 NE9       30.00S
ST PAUL        CLOUDY    70  67  90 NE8       30.01R
CRYSTAL        FOG       69  66  90 NE6       29.99S VSB 1
BLAINE         CLOUDY    70  70 100 CALM      30.01S
LAKEVILLE      CLOUDY    68  66  94 NE6       30.01R FOG
EDEN PRAIRIE   CLOUDY    70  68  93 NE6       29.99R FOG
SOUTH ST PAUL  CLOUDY    70  67  89 N6        30.00R
LAKE ELMO      CLOUDY    68  66  94 NE6       30.02S
$$
MNZ001>005-007-008-013>017-022>024-027-028-231400-
   Northwest Minnesota

CITY           SKY/WX    TMP DP  RH WIND       PRES   REMARKS
BEMIDJI        CLOUDY    67  67  98 E5        30.05S
HALLOCK        CLOUDY    59  57  94 N10       30.07F
ROSEAU         CLOUDY    63  57  82 N8        30.08F
WARROAD        FOG       63  59  88 NW6       30.08F VSB 1/2
THIEF RVR FALL CLOUDY    64  63  94 NE12      30.05F VSB 1/2
CROOKSTON      FOG       63  63 100 N8        30.04S VSB 1/2
FOSSTON        CLOUDY    66  64  94 CALM      30.04F FOG
DETROIT LAKES  CLOUDY    68  66  94 SE8       30.04F
MOORHEAD       FOG       66  66 100 NE3       30.01F VSB 1
PARK RAPIDS    CLOUDY    66  66 100 E6        30.04S FOG
MAHNOMEN       CLOUDY    68  67  96 NE6       30.02F
$$
MNZ006-009>011-018-025>026-231400-
   North Central Minnesota

CITY           SKY/WX    TMP DP  RH WIND       PRES   REMARKS
BAUDETTE       CLOUDY    64  63  96 E5        30.07S
FLAG ISLAND    MOSUNNY   68  64  88 NE6       30.07S
INTL FALLS     CLOUDY    65  65 100 E5        30.07S
WASKISH        FOG       64  63  94 CALM      30.07S VSB 1/2
BIG FORK       CLOUDY    66  64  94 CALM      30.08S FOG
LONGVILLE      CLOUDY    64  63  94 E3        30.06S FOG
GRAND RAPIDS   CLOUDY    63  59  88 SE3       30.08F
CRANE LAKE     CLOUDY    64  63  94 CALM      30.10S
ORR            CLOUDY    64  63  94 CALM      30.07R
COOK           CLOUDY    66  63  88 E3        30.09R
WALKER         CLOUDY    66  65  96 CALM      30.05S
$$
MNZ012-019>021-037-231400-
   Northeast Minnesota

CITY           SKY/WX    TMP DP  RH WIND       PRES   REMARKS
DULUTH         CLOUDY    64  60  87 NE8       30.07S
ELY            MOSUNNY   66  61  82 E8        30.09S
HIBBING        CLOUDY    65  61  87 SE3       30.08S
EVELETH        PTSUNNY   63  61  94 CALM      30.10S FOG
DULUTH HARBOR  CLOUDY    63  61  94 NE8       30.07S
TWO HARBORS    CLOUDY    63  57  82 NE6       30.06S
SILVER BAY     DRIZZLE   61  61 100 CALM      30.07S
GRAND MARAIS     N/A     66  60  81 NE3       30.07R
G MARAIS ARPRT PTSUNNY   61  55  82 N6        30.12S
$$
MNZ029>031-032-039>041-046>048-054>057-064-231400-
   West Central Minnesota

CITY           SKY/WX    TMP DP  RH WIND       PRES   REMARKS
FERGUS FALLS   CLOUDY    70  66  88 E8        30.00F
WHEATON        CLOUDY    66  64  94 E8        29.99F
MORRIS         CLOUDY    70  68  94 E6        29.97F
ALEXANDRIA     CLOUDY    67  64  90 E9        30.02F FOG
ELBOW LAKE     CLOUDY    69  66  93 E6        30.00F
WADENA         CLOUDY    64  64 100 SE7       30.02F FOG
GLENWOOD       DRIZZLE   66  64  94 E9        30.01F
APPLETON       CLOUDY    70  66  88 E9        29.95F FOG
BENSON         LGT RAIN  68  66  94 E5        29.97F
ORTONVILLE     CLOUDY    70  66  88 E9        29.95F FOG
MADISON        CLOUDY    72  70  94 E8        29.93F FOG
WILLMAR        FAIR      70  64  83 E7        30.00F FOG
$$
MNZ033>034-036-042>043-049>051-058-059-231400-
   Central Minnesota

CITY           SKY/WX    TMP DP  RH WIND       PRES   REMARKS
ST CLOUD       CLOUDY    65  63  93 NE7       30.02F FOG
SAUK CENTRE    CLOUDY    65  64  97 E7        30.01F FOG
PAYNESVILLE    CLOUDY    63  63  99 NE9       30.01F
AITKIN         CLOUDY    64  57  77 E6        30.05S
PINE RIVER     CLOUDY    64  64 100 E8        30.08S
BRAINERD       CLOUDY    62  61  96 VRB6      30.05S
STAPLES        CLOUDY    64  64 100 E3        30.03F FOG
LONG PRAIRIE   CLOUDY    63  63 100 NE6       30.03F
LITTLE FALLS   CLOUDY    63  61  94 E5        30.03F FOG
LITCHFIELD     CLOUDY    68  68 100 E8        30.01S FOG
BUFFALO        FOG       66  64  94 NE7       30.02S VSB 1
MAPLE LAKE     CLOUDY    67  66  97 NE5       30.02S FOG
$$
MNZ037-044-045-052-053-231400-
   East Central Minnesota

CITY           SKY/WX    TMP DP  RH WIND       PRES   REMARKS
PRINCETON      CLOUDY    64  63  94 NE7       30.03F VSB 1
MORA           CLOUDY    61  61 100 CALM      30.05F
CAMBRIDGE      CLOUDY    66  57  72 NE7       30.01F HAZE
RUSH CITY      CLOUDY    63  62  96 NE5       30.03F FOG
MOOSE LAKE     CLOUDY    63  59  88 NE3       30.04S
HINCKLEY       CLOUDY    63  63 100 NE7       30.04F FOG
CLOQUET        CLOUDY    63  61  94 E7        30.07S
MCGREGOR       CLOUDY    63  61  94 NE3       30.07S
$$
MNZ071>073-080-081-089-090-097-098-231400-
   Southwest Minnesota

CITY           SKY/WX    TMP DP  RH WIND       PRES   REMARKS
MONTEVIDEO     CLOUDY    68  68 100 SE9       29.95F FOG
GRANITE FALLS  CLOUDY    68  68  99 E8        29.97F FOG
CANBY          CLOUDY    68  67  97 E9        29.93F FOG
MARSHALL       CLOUDY    68  64  88 E13G18    29.90F
REDWOOD FALLS  LGT RAIN  68  67  96 E7        29.99S FOG
OLIVIA         CLOUDY    70  68  94 E7        29.99F FOG
PIPESTONE      CLOUDY    70  64  83 E12G17    29.91R
WINDOM         RAIN      68  66  94 NE21      29.91F
WORTHINGTON      N/A     70  12  11 E12       29.94R
JACKSON        LGT RAIN  68  64  88 NE13G18   29.95F
TRACY          DRIZZLE   68  67  97 E17G25    29.89F
SLAYTON        CLOUDY    67  67  98 CALM      29.94R FOG
$$
MNZ065>067-074>077-082>085-091>093-231400-
   South Central Minnesota

CITY           SKY/WX    TMP DP  RH WIND       PRES   REMARKS
MANKATO        CLOUDY    70  64  83 N7        30.00R VSB 3/4
NEW ULM        LGT RAIN  68  68 100 NE5       30.00F
ST JAMES       CLOUDY    68  66  94 W3        30.02R
FAIRMONT       CLOUDY    54 N/A N/A N10       29.98F THUNDER
GLENCOE        FOG       68  65  92 CALM      30.01R VSB 1/2
FARIBAULT      CLOUDY    72  66  83 NE3       30.00R HAZE
OWATONNA       DRZL/FOG  70  66  88 E6        30.00R VSB 1/4
WASECA         FOG       66  63  88 NE6       30.01R VSB 1/4
ALBERT LEA     FOG       70  68  94 NE6       29.99S VSB 3/4
$$
MNZ078>079-086>088-094>096-231400-
   Southeast Minnesota

CITY           SKY/WX    TMP DP  RH WIND       PRES   REMARKS
ROCHESTER      FOG       69  68  96 NE6       30.01R VSB 1/4
RED WING       CLOUDY    70  68  94 E5        29.99R FOG
STANTON        CLOUDY    71  68  90 NE6       29.99R FOG
DODGE CENTER   DRZL/FOG  70  68  94 E6        30.01R VSB 1/2
WINONA         CLOUDY    72  70  94 CALM      29.99R
AUSTIN         CLOUDY    70  68  94 E5        29.98S FOG
PRESTON        FOG       68  68 100 CALM      30.01R VSB 1/2
$$
ABBREVIATIONS USED IN REMARKS
   TC - TEMPERATURES IN CELSIUS
  WCI - WIND CHILL INDEX
   HX - HEAT INDEX
  VSB - VISIBILITY
$$



USA.gov is the U.S. government's official web portal to all federal, state and local government web resources and services.